Regional Weather Roundup
Issued by NWS

Home | Current Version | Previous Version | Graphics & Text | Print | Product List | Glossary On
Versions: 1 2 3 4 5 6 7 8 9 10 11 12 13 14 15 16 17 18 19 20 21 22 23 24 25 26 27 28 29 30 31 32 33 34 35 36 37 38 39 40 41 42 43 44 45 46 47 48 49 50
000
ASUS43 KLMK 262210
RWRKY
KENTUCKY REGIONAL WEATHER ROUNDUP
NATIONAL WEATHER SERVICE LOUISVILLE KY
600 PM EDT WED JUL 26 2017

NOTE "FAIR" INDICATES FEW OR NO CLOUDS BELOW 12,000 FEET
WITH NO SIGNIFICANT WEATHER AND/OR OBSTRUCTIONS TO VISIBILITY.

KYZ001>023-026-027-061>063-070>075-262300-
WESTERN AND SOUTH CENTRAL KENTUCKY

CITY           SKY/WX    TMP DP  RH WIND       PRES   REMARKS
PADUCAH        FAIR      89  75  63 S5        29.99S HX  99
HENDERSON      PTSUNNY   82  73  74 NW12G17   30.00R THUNDER
OWENSBORO      FAIR      85  75  72 S8        29.99F HX  93
HOPKINSVILLE   FAIR      93  73  52 SW13      30.00F HX 101
BOWLING GREEN  PTSUNNY   95  72  47 NE8       30.01F HX 103
GLASGOW        FAIR      90  68  48 W5        30.03S HX  94
$$

KYZ024-025-028>034-038-045-046-053-262300-
NORTH CENTRAL KENTUCKY

CITY           SKY/WX    TMP DP  RH WIND       PRES   REMARKS
LOUISVILLE/SDF PTSUNNY   91  72  53 SW7       30.00F HX  98
LOUISVILLE/LOU FAIR      91  73  55 S7        30.01F HX  99
FORT KNOX      FAIR      88  73  60 SW8       30.01F HX  95
$$

KYZ035>037-039>044-047>052-055>060-089>105-262300-
NORTHEAST KENTUCKY

CITY           SKY/WX    TMP DP  RH WIND       PRES   REMARKS
LEXINGTON      FAIR      88  66  48 CALM      30.05F HX  90
COVINGTON      PTSUNNY   84  68  58 W6        30.05F
FRANKFORT      FAIR      88  69  53 CALM      30.03F HX  92
$$

KYZ054-064>069-076>088-106>120-262300-
SOUTHEAST KENTUCKY

CITY           SKY/WX    TMP DP  RH WIND       PRES   REMARKS
JACKSON        FAIR      86  68  54 CALM      30.09F
LONDON         FAIR      89  65  44 S3        30.07F HX  91
SOMERSET       FAIR      88  64  45 W6        30.06F
MIDDLESBORO    FAIR      89  73  59 W3        30.08F HX  96
MONTICELLO     FAIR      91  72  53 W12       30.07F HX  98
$$




USA.gov is the U.S. government's official web portal to all federal, state and local government web resources and services.